FW9069 Weather Reports


Display with metric or nautical units.
time (UTC)temp
F
wind
direction
speed
MPH
gust
MPH
rain 1hr
in
rain 24hr
in
rain mn
in
humidity
%
barometer
mb
20260504173338 57 104 2.0 6.0 0.00 0.00 0.00 86 1014.1
20260504171843 56 175 5.0 10.0 0.00 0.00 0.00 87 1014.3
20260504170333 56 152 4.0 10.0 0.00 0.00 0.00 87 1014.2
20260504160331 54 155 4.0 9.0 0.00 0.00 0.00 91 1014.0
20260504150325 53 147 3.0 8.0 0.00 0.00 0.00 93 1013.9
20260504140320 51 119 1.0 7.0 0.00 0.00 0.00 95 1013.3
20260504130327 51 172 2.0 7.0 0.00 0.00 0.00 93 1012.3
20260504110326 52 186 6.0 12.0 0.00 0.00 0.00 92 1011.3
20260504100323 53 180 6.0 9.0 0.00 0.00 0.00 90 1011.1
20260504081821 58 188 4.0 8.0 0.00 0.00 0.00 77 1010.2
20260504080326 61 204 6.0 10.0 0.00 0.00 0.00 72 1010.0
20260504070332 67 240 9.0 17.0 0.00 0.00 0.00 60 1009.5
20260504050325 74 239 7.0 19.0 0.00 0.00 0.00 45 1008.7
20260504044814 75 233 11.0 19.0 0.00 0.00 0.00 43 1008.4
20260504043332 76 245 7.0 16.0 0.00 0.00 0.00 43 1008.1
20260504041831 76 243 10.0 16.0 0.00 0.00 0.00 42 1007.9
20260504040337 77 217 10.0 17.0 0.00 0.00 0.00 42 1007.8
20260504034823 77 244 10.0 15.0 0.00 0.00 0.00 42 1007.7
20260504033331 78 235 10.0 16.0 0.00 0.00 0.00 42 1007.6
20260504031840 78 239 9.0 15.0 0.00 0.00 0.00 43 1007.6
20260504030325 79 229 10.0 15.0 0.00 0.00 0.00 43 1007.6
20260504024830 82 237 8.0 11.0 0.00 0.00 0.00 43 1007.7
20260504023338 85 239 7.0 12.0 0.00 0.00 0.00 40 1007.7
20260504021829 87 295 0.0 2.0 0.00 0.00 0.00 37 1007.6
20260504020320 87 319 0.0 3.0 0.00 0.00 0.00 36 1007.7
20260504014827 88 315 1.0 4.0 0.00 0.00 0.00 36 1007.8
20260504013356 88 331 2.0 7.0 0.00 0.00 0.00 35 1007.8
20260504011825 88 323 1.0 7.0 0.00 0.00 0.00 36 1007.9
20260504010329 89 319 2.0 8.0 0.00 0.00 0.00 36 1008.0
20260504004858 90 314 4.0 7.0 0.00 0.00 0.00 33 1008.0
20260504003324 90 326 5.0 9.0 0.00 0.00 0.00 35 1008.0
20260504001833 90 331 2.0 7.0 0.00 0.00 0.00 34 1008.2
20260504000328 89 294 2.0 8.0 0.00 0.00 0.00 36 1008.3
20260503234832 89 263 1.0 7.0 0.00 0.00 0.00 34 1008.3
20260503233321 89 342 2.0 8.0 0.00 0.00 0.00 36 1008.5
20260503231855 90 317 6.0 11.0 0.00 0.00 0.00 33 1008.7
20260503230345 90 325 2.0 7.0 0.00 0.00 0.00 38 1008.8
20260503224826 89 354 1.0 7.0 0.00 0.00 0.00 39 1009.2
20260503223335 88 308 2.0 8.0 0.00 0.00 0.00 42 1009.3
20260503221822 88 278 2.0 5.0 0.00 0.00 0.00 43 1009.6
20260503220330 88 344 4.0 10.0 0.00 0.00 0.00 46 1009.7
20260503214839 87 349 2.0 5.0 0.00 0.00 0.00 45 1009.9
20260503213323 86 339 3.0 9.0 0.00 0.00 0.00 47 1010.2
20260503211854 85 352 4.0 9.0 0.00 0.00 0.00 47 1010.3
20260503210321 84 339 5.0 10.0 0.00 0.00 0.00 48 1010.4
20260503204828 83 333 6.0 10.0 0.00 0.00 0.00 50 1010.5
20260503203338 83 352 6.0 9.0 0.00 0.00 0.00 49 1010.7
20260503201840 82 330 7.0 10.0 0.00 0.00 0.00 52 1010.9
20260503200320 81 327 6.0 12.0 0.00 0.00 0.00 52 1011.1
20260503194823 79 327 4.0 10.0 0.00 0.00 0.00 54 1011.2
20260503193348 79 321 2.0 10.0 0.00 0.00 0.00 55 1011.3
20260503191834 78 344 3.0 7.0 0.00 0.00 0.00 56 1011.5
20260503190357 77 321 2.0 10.0 0.00 0.00 0.00 59 1011.6
20260503184825 75 327 2.0 8.0 0.00 0.00 0.00 63 1011.9
20260503183333 74 344 5.0 9.0 0.00 0.00 0.00 62 1012.0
20260503181837 73 4 4.0 8.0 0.00 0.00 0.00 64 1012.2
20260503180326 72 1 7.0 9.0 0.00 0.00 0.00 65 1012.2
20260503174832 71 326 7.0 11.0 0.00 0.00 0.00 65 1012.3